Glens Falls, NY

8:25 AM EST on November 17, 2019 (GMT -0500)
Bennett Memorial

Weather History for KGFL - October, 2019

Change the Weather History Date:

Monday, October 21, 2019

  Actual Average Record
Temperature  
Mean Temperature 50 °F 45 °F  
Max Temperature 64 °F 56 °F 80 °F (1979)
Min Temperature 36 °F 34 °F 18 °F (1972)
Degree Days  
Heating Degree Days 15 20  
Month to date heating degree days 334 352  
Since 1 July heating degree days 556 637  
Cooling Degree Days 0 0  
Month to date cooling degree days 0 0  
Year to date cooling degree days 416 351  
Moisture  
Dew Point 41 °F    
Average Humidity 76    
Maximum Humidity 100    
Minimum Humidity 52    
Precipitation  
Precipitation 0.00 in 0.11 in 1.77 in (1995)
Month to date precipitation 4.54 2.40  
Year to date precipitation 35.39 31.59  
Sea Level Pressure  
Sea Level Pressure 30.12 in    
Wind  
Wind Speed 2 mph (NE)    
Max Wind Speed 9 mph    
Max Gust Speed 11 mph    
Visibility 4 miles    
Events Fog    
T = Trace of Precipitation, MM = Missing Value Source: NWS Daily Summary

Daily Weather History Graph

Daily Weather History Graph

Search for Another Location

Airport or City:

Astronomy

Oct. 21, 2019 Rise Set
Actual Time 7:15 AM EDT 6:02 PM EDT
Civil Twilight 6:46 AM EDT 6:31 PM EDT
Nautical Twilight 6:13 AM EDT 7:04 PM EDT
Astronomical Twilight 5:40 AM EDT 7:37 PM EDT
Moon No Moon Rise 2:37 PM EDT (10/21)
Length of Visible Light 11h 44m
Length of Day
10h 46m
Waning Gibbous, 48% of the Moon is Illuminated
Oct 21
Waning Gibbous
Oct 27
New
Nov 4
First Quarter
Nov 12
Full
Nov 19
Last Quarter

Hourly Weather History & Observations

Time (EDT) Temp. Windchill Dew Point Humidity Pressure Visibility Wind Dir Wind Speed Gust Speed Precip Events Conditions
12:53 AM 37.9 °F - 37.0 °F 97% 30.08 in 0.2 mi Calm Calm - N/A Fog Fog
1:53 AM 36.0 °F - 35.1 °F 97% 30.08 in 0.2 mi Calm Calm - N/A Fog Fog
2:04 AM 36.0 °F - 35.1 °F 97% 30.07 in 0.5 mi Calm Calm - N/A Fog Fog
2:20 AM 37.0 °F - 36.0 °F 96% 30.07 in 0.2 mi Calm Calm - N/A Fog Fog
3:53 AM 37.0 °F - 37.0 °F 100% 30.09 in 0.2 mi Calm Calm - N/A Fog Fog
4:27 AM 39.0 °F - 37.9 °F 96% 30.08 in 0.5 mi Calm Calm - N/A Fog Fog
4:53 AM 39.0 °F 36.8 °F 39.0 °F 100% 30.11 in 0.2 mi East 3.5 mph - N/A Fog Fog
5:26 AM 39.9 °F - 39.0 °F 97% 30.09 in 0.5 mi Calm Calm - N/A Fog Fog
5:53 AM 39.9 °F - 39.0 °F 97% 30.12 in 0.2 mi Calm Calm - N/A Fog Fog
6:01 AM 39.9 °F - 39.9 °F 100% 30.10 in 0.5 mi Calm Calm - N/A Fog Fog
6:19 AM 39.9 °F - 39.0 °F 97% 30.10 in 0.2 mi Calm Calm - N/A Fog Fog
6:29 AM 39.9 °F - 39.9 °F 100% 30.11 in 0.5 mi Calm Calm - N/A Fog Fog
6:42 AM 41.0 °F - 39.9 °F 96% 30.11 in 1.2 mi Calm Calm - N/A   Overcast
6:53 AM 41.0 °F - 39.9 °F 96% 30.12 in 1.2 mi Calm Calm - N/A   Overcast
7:08 AM 41.0 °F 39.0 °F 39.9 °F 96% 30.11 in 0.5 mi East 3.5 mph - N/A Fog Fog
7:27 AM 42.1 °F - 41.0 °F 96% 30.12 in 0.2 mi Calm Calm - N/A Fog Fog
7:53 AM 42.1 °F 40.2 °F 41.0 °F 96% 30.14 in 0.2 mi East 3.5 mph - N/A Fog Fog
8:51 AM 42.8 °F - 42.8 °F 100% 30.15 in 0.5 mi Calm Calm - N/A Fog Fog
8:53 AM 42.1 °F - 42.1 °F 100% 30.17 in 0.5 mi Calm Calm - N/A Fog Fog
9:06 AM 43.0 °F 38.8 °F 42.1 °F 97% 30.15 in 2.5 mi North 6.9 mph - N/A   Overcast
9:13 AM 44.1 °F 40.1 °F 43.0 °F 96% 30.15 in 8.0 mi North 6.9 mph - N/A   Overcast
9:24 AM 44.1 °F 41.5 °F 43.0 °F 96% 30.14 in 7.0 mi NNE 4.6 mph - N/A   Overcast
9:53 AM 44.1 °F 40.8 °F 44.1 °F 100% 30.17 in 8.0 mi North 5.8 mph - N/A   Overcast
10:53 AM 46.0 °F - 45.0 °F 96% 30.17 in 10.0 mi Calm Calm - N/A   Overcast
11:26 AM 48.0 °F - 46.0 °F 93% 30.16 in 10.0 mi East 4.6 mph - N/A   Overcast
11:53 AM 48.0 °F - 46.0 °F 93% 30.17 in 5.0 mi East 5.8 mph - N/A   Mostly Cloudy
12:08 PM 48.9 °F - 46.9 °F 93% 30.15 in 6.0 mi ENE 5.8 mph - N/A   Overcast
12:46 PM 51.1 °F - 48.0 °F 89% 30.13 in 10.0 mi East 4.6 mph - N/A   Scattered Clouds
12:53 PM 52.0 °F - 48.0 °F 86% 30.15 in 10.0 mi SE 4.6 mph - N/A   Partly Cloudy
1:53 PM 57.0 °F - 48.9 °F 74% 30.12 in 10.0 mi Calm Calm - N/A   Clear
2:53 PM 62.1 °F - 48.0 °F 60% 30.10 in 10.0 mi NNE 4.6 mph - N/A   Clear
3:53 PM 63.0 °F - 44.1 °F 50% 30.10 in 10.0 mi North 3.5 mph - N/A   Clear
4:53 PM 62.1 °F - 44.1 °F 52% 30.11 in 10.0 mi NE 3.5 mph - N/A   Clear
5:53 PM 59.0 °F - 45.0 °F 60% 30.12 in 10.0 mi ENE 4.6 mph - N/A   Clear
6:53 PM 48.9 °F - 43.0 °F 80% 30.14 in 10.0 mi Calm Calm - N/A   Clear
7:53 PM 43.0 °F - 41.0 °F 93% 30.13 in 10.0 mi Calm Calm - N/A   Clear
8:53 PM 41.0 °F - 39.0 °F 93% 30.15 in 8.0 mi Calm Calm - N/A   Clear
8:57 PM 41.0 °F - 39.0 °F 93% 30.13 in 1.8 mi Calm Calm - N/A   Clear
9:12 PM 41.0 °F - 39.9 °F 96% 30.13 in 3.0 mi Calm Calm - N/A   Clear
9:39 PM 39.0 °F - 37.0 °F 93% 30.13 in 0.8 mi Calm Calm - N/A   Clear
9:48 PM 39.2 °F 37.0 °F 37.4 °F 93% 30.13 in 2.0 mi NW 3.5 mph - N/A   Clear
9:53 PM 39.9 °F 36.7 °F 37.9 °F 93% 30.14 in 8.0 mi NW 4.6 mph - N/A   Clear
10:53 PM 37.9 °F - 37.0 °F 97% 30.14 in 8.0 mi Calm Calm - N/A   Clear
11:51 PM 37.4 °F - 37.4 °F 100% 30.13 in 1.8 mi Calm Calm - N/A   Clear
11:53 PM 39.0 °F - 37.9 °F 96% 30.14 in 1.5 mi Calm Calm - N/A   Clear